Home > Weather > Belleville > Past weeks

Flag for Canada Weather for the Past 2 Weeks in Belleville, Ontario, Canada

Now
14 °F

Passing clouds.


Feels Like: 1 °F
Forecast: -13 / 6 °F
Wind: 10 mph from North

Location: Trenton

Current Time: Feb 13, 2016 at 12:20:42 AM

Latest Report: Feb 12, 2016 at 11:00 PM


Visibility: 15 mi

Pressure: 29.90 "Hg

Humidity: 62%

Dew point: 3 °F

Location of BellevilleLocation

Historic Weather in Belleville — Graph

°F

Belleville Temperature Yesterday

Maximum temperature yesterday: 25 °F (at 11:00 AM)
Minimum temperature yesterday: 3 °F (at 6:00 AM)
Average temperature yesterday: 16 °F

High & Low Weather Summary for the Past Weeks

 TemperatureHumidityPressure
High52 °F (Feb 3, 3:00 PM)100% (Jan 29, 12:00 AM)30.39 "Hg (Jan 29, 12:00 AM)
Low1 °F (Feb 11, 9:00 AM)35% (Feb 11, 11:00 AM)29.43 "Hg (Feb 1, 1:52 AM)
Average29 °F76%29.89 "Hg
* Reported Jan 28 11:00 PM — Feb 12 11:00 PM, Belleville, Weather by CustomWeather, © 2016

Note: Actual official high and low records may vary slightly from our data, if they occured in-between our weather recording intervals... More about our weather records

Advertising

Belleville Weather History for the Previous 24 Hours

 ConditionsComfort  
Time TempWeatherWind HumidityBarometerVisibility
11:00 PM
Fri, Feb 12
14 °FPassing clouds.10 mph62%29.90 "Hg15 mi
10:00 PM16 °FPassing clouds.7 mph73%29.89 "Hg15 mi
9:00 PM18 °FSnow flurries. Passing clouds.9 mph79%29.86 "Hg15 mi
8:00 PM18 °FPassing clouds.7 mph86%29.84 "Hg15 mi
7:00 PM19 °FSnow flurries. Mostly cloudy.12 mph79%29.83 "Hg1 mi
6:00 PM23 °FPassing clouds.15 mph63%29.81 "Hg15 mi
5:00 PM23 °FMostly cloudy.18 mph58%29.81 "Hg15 mi
4:00 PM23 °FMostly cloudy.15 mph68%29.82 "Hg15 mi
3:00 PM23 °FOvercast.17 mph86%29.83 "Hg7 mi
2:00 PM21 °FSnow flurries. Overcast.16 mph93%29.85 "Hg1 mi
1:00 PM21 °FBlizzard. Ice fog.25 mph80%29.88 "Hg0 mi
12:52 PM23 °FSnow flurries. Ice fog.28 mph74%29.88 "Hg1 mi
12:00 PM25 °FSnow flurries. Mostly cloudy.25 mph63%29.91 "Hg5 mi
11:00 AM25 °FCloudy.20 mph63%29.94 "Hg15 mi
10:00 AM23 °FScattered clouds.14 mph63%29.96 "Hg15 mi
9:00 AM21 °FPassing clouds.13 mph63%29.98 "Hg15 mi
8:00 AM19 °FPassing clouds.13 mph68%30.01 "Hg15 mi
7:00 AM12 °FPassing clouds.8 mph79%30.03 "Hg15 mi
6:00 AM3 °FPassing clouds.6 mph78%30.06 "Hg15 mi
5:00 AM5 °FPassing clouds.5 mph72%30.08 "Hg15 mi
4:00 AM9 °FPassing clouds.No wind72%30.10 "Hg9 mi
3:00 AM7 °FPassing clouds.5 mph72%30.13 "Hg15 mi
2:00 AM5 °FPassing clouds.2 mph72%30.16 "Hg15 mi
1:00 AM5 °FPassing clouds.3 mph60%30.19 "Hg15 mi
12:00 AM5 °FClear.2 mph66%30.20 "Hg15 mi
Weather by CustomWeather, © 2016

See weather overviewHow to use our weather pages